Terminal Aerodrome Forecast
Issued by NWS

Current Version | Previous Version | Graphics & Text | Print | Product List | Glossary On
Versions: 1 2 3 4 5 6 7 8 9 10 11 12 13 14 15 16 17 18 19 20 21 22 23 24 25 26 27 28 29 30 31 32 33
000
FTUS41 KRNK 031121
TAFLWB
TAF
KLWB 031121Z 0312/0412 00000KT 1/4SM FG OVC001
      TEMPO 0312/0313 4SM BR SCT001
     FM031330 VRB02KT P6SM SCT025
     FM031800 31004KT P6SM VCTS BKN050CB
     FM040000 00000KT P6SM SCT060
     FM040800 00000KT 1/4SM FG BKN001=

USA.gov is the U.S. government's official web portal to all federal, state and local government web resources and services.